RASAT

Last updated on Tue Jul 01 2025 00:02:29 GMT+0000 (Coordinated Universal Time)

1 37791U 11044D 25181.59153324 .00000341 00000+0 68526-4 0 9994 2 37791 98.0687 273.3084 0019833 223.9166 249.7185 14.67608737741600
UTC large
Height (km)
Speed (km/s)
/
Latitude / Longitude
Inclination (degrees)
Orbital Period (minutes)
Azimuth
Elevation
Range (km)
Doppler Factor

Next 0 passes for location: London (51.5072 / 0.1276)

Sorry there are no passes over London.